Hourly Weather Bolshie Yasnovicy

Today, 1 August, Sunday

Time Temperature Precipitation Wind Pressure Humidity
00:00 +15°C° 0 mm 2 mps 732 mmHg 84%
01:00 +15°C° 0 mm 2 mps 732 mmHg 85%
02:00 +15°C° 0 mm 1 mps 732 mmHg 86%
03:00 +15°C° 0 mm 2 mps 732 mmHg 84%
04:00 +16°C° 0 mm 2 mps 732 mmHg 83%
05:00 +16°C° 0 mm 2 mps 732 mmHg 82%
06:00 +16°C° 0.2 mm 3 mps 732 mmHg 84%
07:00 +17°C° 0.2 mm 3 mps 732 mmHg 87%
08:00 +17°C° 0.2 mm 4 mps 732 mmHg 90%
09:00 +18°C° 0.2 mm 4 mps 732 mmHg 90%
10:00 +18°C° 0.2 mm 4 mps 732 mmHg 90%
11:00 +19°C° 0.2 mm 4 mps 732 mmHg 90%
12:00 +20°C° 0.1 mm 4 mps 732 mmHg 84%
13:00 +21°C° 0.1 mm 4 mps 732 mmHg 78%
14:00 +23°C° 0.1 mm 4 mps 732 mmHg 73%
15:00 +23°C° 0.1 mm 4 mps 732 mmHg 70%
16:00 +23°C° 0.1 mm 4 mps 732 mmHg 67%
17:00 +25°C° 0.1 mm 3 mps 732 mmHg 63%
18:00 +22°C° 0 mm 3 mps 732 mmHg 66%
19:00 +20°C° 0 mm 2 mps 732 mmHg 68%
20:00 +19°C° 0 mm 2 mps 732 mmHg 71%
21:00 +18°C° 0 mm 2 mps 732 mmHg 72%
22:00 +17°C° 0 mm 2 mps 732 mmHg 74%
23:00 +16°C° 0 mm 1 mps 732 mmHg 76%

Tomorrow, 2 August, Monday

Time Temperature Precipitation Wind Pressure Humidity
00:00 +16°C° 0 mm 1 mps 732 mmHg 75%
01:00 +16°C° 0 mm 1 mps 732 mmHg 74%
02:00 +16°C° 0 mm 1 mps 732 mmHg 73%
03:00 +16°C° 0 mm 1 mps 732 mmHg 74%
04:00 +16°C° 0 mm 1 mps 732 mmHg 75%
05:00 +16°C° 0 mm 1 mps 732 mmHg 76%
06:00 +17°C° 0 mm 2 mps 731 mmHg 72%
07:00 +19°C° 0 mm 2 mps 731 mmHg 69%
08:00 +20°C° 0 mm 3 mps 731 mmHg 65%
09:00 +22°C° 0 mm 3 mps 730 mmHg 63%
10:00 +25°C° 0 mm 4 mps 730 mmHg 61%
11:00 +27°C° 0 mm 5 mps 729 mmHg 59%
12:00 +26°C° 1.3 mm 5 mps 728 mmHg 67%
13:00 +26°C° 1.3 mm 5 mps 728 mmHg 75%
14:00 +25°C° 1.3 mm 5 mps 727 mmHg 82%
15:00 +25°C° 1.7 mm 4 mps 727 mmHg 84%
16:00 +23°C° 1.7 mm 4 mps 726 mmHg 86%
17:00 +23°C° 1.7 mm 4 mps 726 mmHg 87%
18:00 +21°C° 1.4 mm 4 mps 726 mmHg 90%
19:00 +19°C° 1.4 mm 3 mps 727 mmHg 93%
20:00 +17°C° 1.4 mm 3 mps 727 mmHg 96%
21:00 +17°C° 0 mm 3 mps 728 mmHg 96%
22:00 +16°C° 0 mm 2 mps 728 mmHg 95%
23:00 +15°C° 0 mm 2 mps 728 mmHg 95%

Day after tomorrow, 3 August, Tuesday

Time Temperature Precipitation Wind Pressure Humidity
00:00 +15°C° 0 mm 2 mps 728 mmHg 95%
01:00 +14°C° 0 mm 3 mps 729 mmHg 95%
02:00 +14°C° 0 mm 3 mps 729 mmHg 96%
03:00 +14°C° 0 mm 3 mps 729 mmHg 95%
04:00 +14°C° 0 mm 3 mps 730 mmHg 95%
05:00 +15°C° 0 mm 2 mps 730 mmHg 95%
06:00 +15°C° 0.1 mm 2 mps 730 mmHg 94%
07:00 +15°C° 0.1 mm 2 mps 731 mmHg 94%
08:00 +16°C° 0.1 mm 2 mps 731 mmHg 93%
09:00 +17°C° 0.3 mm 3 mps 731 mmHg 86%
10:00 +18°C° 0.3 mm 3 mps 732 mmHg 79%
11:00 +19°C° 0.3 mm 4 mps 732 mmHg 73%
12:00 +20°C° 0.1 mm 4 mps 732 mmHg 64%
13:00 +21°C° 0.1 mm 4 mps 732 mmHg 54%
14:00 +22°C° 0.1 mm 5 mps 732 mmHg 45%
15:00 +21°C° 0.1 mm 4 mps 732 mmHg 53%
16:00 +20°C° 0.1 mm 4 mps 732 mmHg 61%
17:00 +19°C° 0.1 mm 4 mps 733 mmHg 69%
18:00 +18°C° 0.2 mm 3 mps 733 mmHg 78%
19:00 +16°C° 0.2 mm 2 mps 733 mmHg 87%
20:00 +14°C° 0.2 mm 2 mps 734 mmHg 96%
21:00 +14°C° 0 mm 2 mps 734 mmHg 96%
22:00 +13°C° 0 mm 1 mps 734 mmHg 96%
23:00 +13°C° 0 mm 1 mps 735 mmHg 96%

4 August, Wednesday

Time Temperature Precipitation Wind Pressure Humidity
00:00 +12°C° 0 mm 1 mps 735 mmHg 96%
01:00 +12°C° 0 mm 1 mps 735 mmHg 96%
02:00 +12°C° 0 mm 1 mps 736 mmHg 96%
03:00 +12°C° 0 mm 1 mps 736 mmHg 95%
04:00 +12°C° 0 mm 1 mps 736 mmHg 94%
05:00 +11°C° 0 mm 0 mps 737 mmHg 93%
06:00 +12°C° 0 mm 0 mps 737 mmHg 89%
07:00 +14°C° 0 mm 1 mps 737 mmHg 85%
08:00 +15°C° 0 mm 1 mps 738 mmHg 81%
09:00 +18°C° 0 mm 1 mps 738 mmHg 68%
10:00 +20°C° 0 mm 1 mps 738 mmHg 55%
11:00 +21°C° 0 mm 2 mps 738 mmHg 42%
12:00 +21°C° 0 mm 2 mps 738 mmHg 40%
13:00 +23°C° 0 mm 2 mps 738 mmHg 38%
14:00 +23°C° 0 mm 2 mps 738 mmHg 36%
15:00 +23°C° 0 mm 2 mps 738 mmHg 38%
16:00 +23°C° 0 mm 2 mps 738 mmHg 39%
17:00 +23°C° 0 mm 1 mps 738 mmHg 41%
18:00 +20°C° 0 mm 1 mps 739 mmHg 49%
19:00 +18°C° 0 mm 1 mps 739 mmHg 57%
20:00 +15°C° 0 mm 1 mps 739 mmHg 66%
21:00 +14°C° 0 mm 1 mps 739 mmHg 66%
22:00 +14°C° 0 mm 1 mps 739 mmHg 67%
23:00 +14°C° 0 mm 1 mps 739 mmHg 68%

5 August, Thursday

Time Temperature Precipitation Wind Pressure Humidity
00:00 +13°C° 0 mm 1 mps 739 mmHg 69%
01:00 +13°C° 0 mm 1 mps 739 mmHg 70%
02:00 +13°C° 0 mm 1 mps 739 mmHg 71%
03:00 +13°C° 0 mm 1 mps 739 mmHg 72%
04:00 +13°C° 0 mm 1 mps 739 mmHg 73%
05:00 +13°C° 0 mm 1 mps 739 mmHg 74%
06:00 +15°C° 0 mm 2 mps 739 mmHg 69%
07:00 +17°C° 0 mm 2 mps 739 mmHg 63%
08:00 +19°C° 0 mm 2 mps 739 mmHg 58%
09:00 +20°C° 0 mm 2 mps 739 mmHg 53%
10:00 +23°C° 0 mm 2 mps 739 mmHg 49%
11:00 +24°C° 0 mm 2 mps 739 mmHg 44%
12:00 +24°C° 0 mm 2 mps 739 mmHg 44%
13:00 +24°C° 0 mm 2 mps 738 mmHg 45%
14:00 +24°C° 0 mm 2 mps 738 mmHg 45%
15:00 +23°C° 0 mm 2 mps 738 mmHg 53%
16:00 +22°C° 0 mm 1 mps 738 mmHg 61%
17:00 +20°C° 0 mm 1 mps 738 mmHg 69%
18:00 +19°C° 0 mm 1 mps 738 mmHg 73%
19:00 +19°C° 0 mm 1 mps 738 mmHg 76%
20:00 +18°C° 0 mm 1 mps 738 mmHg 80%
21:00 +16°C° 0 mm 1 mps 738 mmHg 84%
22:00 +15°C° 0 mm 1 mps 738 mmHg 87%
23:00 +14°C° 0 mm 1 mps 738 mmHg 91%

6 August, Friday

Time Temperature Precipitation Wind Pressure Humidity
00:00 +14°C° 0 mm 2 mps 738 mmHg 93%
01:00 +14°C° 0 mm 2 mps 737 mmHg 94%
02:00 +13°C° 0 mm 2 mps 737 mmHg 96%
03:00 +14°C° 0 mm 2 mps 737 mmHg 95%
04:00 +14°C° 0 mm 2 mps 737 mmHg 94%
05:00 +14°C° 0 mm 2 mps 737 mmHg 93%
06:00 +14°C° 0 mm 3 mps 737 mmHg 85%
07:00 +17°C° 0 mm 4 mps 737 mmHg 78%
08:00 +18°C° 0 mm 4 mps 736 mmHg 71%
09:00 +17°C° 0.8 mm 4 mps 736 mmHg 80%
10:00 +17°C° 0.8 mm 4 mps 736 mmHg 88%
11:00 +15°C° 0.8 mm 4 mps 736 mmHg 96%
12:00 +15°C° 0.7 mm 4 mps 736 mmHg 96%
13:00 +15°C° 0.7 mm 5 mps 736 mmHg 97%
14:00 +15°C° 0.7 mm 5 mps 735 mmHg 97%
15:00 +15°C° 0.3 mm 5 mps 735 mmHg 96%
16:00 +15°C° 0.3 mm 5 mps 735 mmHg 95%
17:00 +16°C° 0.3 mm 5 mps 735 mmHg 95%
18:00 +17°C° 0.4 mm 4 mps 734 mmHg 95%
19:00 +17°C° 0.4 mm 4 mps 734 mmHg 95%
20:00 +17°C° 0.4 mm 4 mps 734 mmHg 95%
21:00 +17°C° 0.6 mm 4 mps 734 mmHg 96%
22:00 +17°C° 0.6 mm 3 mps 734 mmHg 97%
23:00 +17°C° 0.6 mm 3 mps 734 mmHg 97%
Show more

We Need Your Consent

Meteoprog and our Service Providers may store and access personal data such as cookies, device identifiers or other similar technologies on your device and process such data to personalise content and ads, as well as provide social media features and to analyse the traffic.

  • Store and/or access information on your device

    Cookies, device identifiers or other information can be stored or accessed on your device for the purposes indicated above.

  • Personalised ads and content, ad and content measurement, audience insights, and products development

    Ads and content can be personalised based on a profile. More data can be added to better personalise ads and content. Ad and content performance can be measured. Insights about the audience who saw the ads and content can be derived. Such data can be used to develop or improve user’s experience, systems and software.

By clicking ‘I Agree’ you will allow the use of indicated cookies, device identifiers, web beacons or other similar technologies. Your settings can be changed in the browser on your device.

For certain purposes, legitimate interests may be relied on, rather than consent. You can read more about this in our Privacy and Cookie Policy.